START_TIME,STEP,MOV.,AL01,t_acc.,AL02,t_acc.,E37,t_acc.,H21,t_acc.
1979-07-23 12:00:33.850 ,0,0,1.,24.0,1.,24.0,2.,24.0,0.,24.0
1979-07-23 12:01:45.850 ,0,0,1.,24.0,1.,24.0,4.,24.0,0.,24.0
1979-07-23 12:02:09.850 ,0,0,4.,24.0,0.,24.0,2.,24.0,0.,24.0
1979-07-23 12:02:33.850 ,3,1,2.,24.0,0.,24.0,1.,24.0,0.,24.0
1979-07-23 12:02:57.850 ,3,0,0.,24.0,0.,24.0,3.,24.0,0.,24.0
1979-07-23 12:03:21.850 ,4,1,3.,24.0,0.,24.0,4.,24.0,0.,24.0
1979-07-23 12:03:45.850 ,4,0,1.,24.0,0.,24.0,4.,24.0,0.,24.0
1979-07-23 12:04:09.850 ,5,1,0.,24.0,0.,24.0,5.,24.0,0.,24.0
1979-07-23 12:04:33.850 ,5,0,1.,24.0,0.,24.0,4.,24.0,0.,24.0
1979-07-23 12:04:57.850 ,6,1,0.,24.0,0.,24.0,2.,24.0,0.,24.0
1979-07-23 12:05:21.850 ,6,0,2.,24.0,0.,24.0,5.,24.0,0.,24.0
1979-07-23 12:05:45.850 ,7,1,10.,24.0,1.,24.0,4.,24.0,0.,24.0
1979-07-23 12:06:09.850 ,7,0,28.,24.0,0.,24.0,4.,24.0,0.,24.0
1979-07-23 12:06:33.850 ,7,1,41.,24.0,0.,24.0,4.,24.0,0.,24.0
1979-07-23 12:06:57.850 ,0,0,28.,24.0,0.,24.0,5.,24.0,0.,24.0
1979-07-23 12:07:21.850 ,6,1,19.,24.0,0.,24.0,3.,24.0,0.,24.0
1979-07-23 12:07:45.850 ,6,0,3.,24.0,0.,24.0,3.,24.0,0.,24.0
1979-07-23 12:08:09.850 ,5,1,1.,24.0,0.,24.0,5.,24.0,0.,24.0
1979-07-23 12:08:33.850 ,5,0,1.,24.0,0.,24.0,6.,24.0,0.,24.0
1979-07-23 12:08:57.850 ,4,1,1.,24.0,0.,24.0,4.,24.0,0.,24.0
1979-07-23 12:09:21.850 ,4,0,1.,24.0,0.,24.0,1.,24.0,0.,24.0
1979-07-23 12:09:45.850 ,3,1,1.,24.0,0.,24.0,4.,24.0,0.,24.0
1979-07-23 12:10:09.850 ,3,0,0.,24.0,0.,24.0,4.,24.0,0.,24.0
1979-07-23 12:10:33.850 ,2,1,0.,24.0,0.,24.0,2.,24.0,0.,24.0
1979-07-23 12:10:57.850 ,2,0,0.,24.0,0.,24.0,2.,24.0,0.,24.0
1979-07-23 12:11:21.850 ,1,1,1.,24.0,0.,24.0,2.,24.0,0.,24.0
1979-07-23 12:11:45.850 ,1,0,0.,24.0,0.,24.0,2.,24.0,0.,24.0
1979-07-23 12:12:09.850 ,0,1,0.,24.0,0.,24.0,3.,24.0,0.,24.0
1979-07-23 12:12:33.850 ,0,0,0.,24.0,0.,24.0,4.,24.0,0.,24.0
1979-07-23 12:12:57.850 ,0,1,0.,24.0,0.,24.0,6.,24.0,0.,24.0
1979-07-23 12:13:21.850 ,0,0,1.,24.0,1.,24.0,2.,24.0,0.,24.0
1979-07-23 12:13:45.850 ,1,1,3.,24.0,0.,24.0,1.,24.0,0.,24.0
1979-07-23 12:14:09.850 ,1,0,0.,24.0,1.,24.0,0.,24.0,0.,24.0
1979-07-23 12:14:33.850 ,2,1,2.,24.0,0.,24.0,10.,24.0,0.,24.0
1979-07-23 12:14:57.850 ,2,0,0.,24.0,1.,24.0,1.,24.0,0.,24.0
1979-07-23 12:15:21.850 ,3,1,0.,24.0,0.,24.0,1.,24.0,0.,24.0
1979-07-23 12:15:45.850 ,3,0,0.,24.0,0.,24.0,2.,24.0,0.,24.0
1979-07-23 12:16:09.850 ,4,1,2.,24.0,1.,24.0,4.,24.0,0.,24.0
1979-07-23 12:16:33.850 ,4,0,1.,24.0,0.,24.0,5.,24.0,0.,24.0
1979-07-23 12:16:57.850 ,5,1,2.,24.0,1.,24.0,6.,24.0,0.,24.0
1979-07-23 12:17:21.850 ,5,0,2.,24.0,0.,24.0,3.,24.0,0.,24.0
1979-07-23 12:17:45.850 ,6,1,4.,24.0,1.,24.0,3.,24.0,0.,24.0
1979-07-23 12:18:09.850 ,6,0,5.,24.0,0.,24.0,3.,24.0,0.,24.0
1979-07-23 12:18:33.850 ,7,0,7.,24.0,1.,24.0,3.,24.0,0.,24.0
1979-07-23 12:18:57.850 ,7,0,34.,24.0,0.,24.0,4.,24.0,0.,24.0
1979-07-23 12:19:21.850 ,5,1,21.,24.0,0.,24.0,4.,24.0,0.,24.0
1979-07-23 12:19:45.850 ,1,1,1.,24.0,0.,24.0,3.,24.0,0.,24.0
1979-07-23 12:20:09.850 ,2,1,2.,24.0,0.,24.0,3.,24.0,0.,24.0
1979-07-23 12:20:33.850 ,6,1,4.,24.0,0.,24.0,5.,24.0,0.,24.0
1979-07-23 12:20:57.850 ,5,1,14.,24.0,0.,24.0,4.,24.0,0.,24.0
1979-07-23 12:21:21.850 ,1,1,0.,24.0,0.,24.0,3.,24.0,0.,24.0
1979-07-23 12:21:45.850 ,2,1,2.,24.0,0.,24.0,1.,24.0,0.,24.0
1979-07-23 12:22:09.850 ,6,1,0.,24.0,0.,24.0,4.,24.0,0.,24.0
1979-07-23 12:22:33.850 ,5,1,12.,24.0,0.,24.0,1.,24.0,0.,24.0
1979-07-23 12:22:57.850 ,1,1,0.,24.0,0.,24.0,2.,24.0,0.,24.0
1979-07-23 12:23:21.850 ,2,1,1.,24.0,1.,24.0,5.,24.0,0.,24.0
1979-07-23 12:23:45.850 ,6,1,2.,24.0,0.,24.0,3.,24.0,0.,24.0
1979-07-23 12:24:09.850 ,5,1,22.,24.0,0.,24.0,6.,24.0,0.,24.0
1979-07-23 12:24:33.850 ,1,1,0.,24.0,0.,24.0,4.,24.0,0.,24.0
1979-07-23 12:24:57.850 ,2,1,0.,24.0,0.,24.0,3.,24.0,0.,24.0
1979-07-23 12:25:21.850 ,6,1,1.,24.0,0.,24.0,4.,24.0,0.,24.0
1979-07-23 12:25:45.850 ,5,1,14.,24.0,1.,24.0,2.,24.0,0.,24.0
1979-07-23 12:26:09.850 ,1,1,0.,24.0,0.,24.0,3.,24.0,0.,24.0
1979-07-23 12:26:33.850 ,2,1,0.,24.0,0.,24.0,3.,24.0,0.,24.0
1979-07-23 12:26:57.850 ,6,1,2.,24.0,2.,24.0,1.,24.0,0.,24.0
1979-07-23 12:27:21.850 ,5,1,18.,24.0,0.,24.0,3.,24.0,0.,24.0
1979-07-23 12:27:45.850 ,1,1,0.,24.0,0.,24.0,3.,24.0,0.,24.0
1979-07-23 12:28:09.850 ,2,1,0.,24.0,0.,24.0,6.,24.0,0.,24.0
1979-07-23 12:28:33.850 ,6,1,6.,24.0,0.,24.0,4.,24.0,0.,24.0
1979-07-23 12:28:57.850 ,5,1,9.,24.0,0.,24.0,2.,24.0,0.,24.0
1979-07-23 12:29:21.850 ,1,1,0.,24.0,0.,24.0,3.,24.0,0.,24.0
1979-07-23 12:29:45.850 ,0,0,0.,24.0,0.,24.0,3.,24.0,0.,24.0
1979-07-23 12:30:09.850 ,0,0,3.,24.0,1.,24.0,7.,24.0,0.,24.0
1979-07-23 12:30:33.850 ,5,1,18.,24.0,0.,24.0,4.,24.0,0.,24.0
1979-07-23 12:30:57.850 ,5,0,2.,24.0,0.,24.0,5.,24.0,0.,24.0
1979-07-23 12:31:21.850 ,4,1,2.,24.0,2.,24.0,4.,24.0,0.,24.0
1979-07-23 12:31:45.850 ,4,0,2.,24.0,0.,24.0,5.,24.0,0.,24.0
1979-07-23 12:32:09.850 ,3,1,0.,24.0,2.,24.0,12.,24.0,0.,24.0
1979-07-23 12:32:33.850 ,3,0,1.,24.0,0.,24.0,4.,24.0,0.,24.0
1979-07-23 12:32:57.850 ,2,1,1.,24.0,0.,24.0,8.,24.0,0.,24.0
1979-07-23 12:33:21.850 ,2,0,1.,24.0,1.,24.0,0.,24.0,0.,24.0
1979-07-23 12:33:45.850 ,1,1,3.,24.0,0.,24.0,3.,24.0,0.,24.0
1979-07-23 12:34:09.850 ,1,0,2.,24.0,1.,24.0,2.,24.0,0.,24.0
1979-07-23 12:34:33.850 ,0,1,2.,24.0,0.,24.0,6.,24.0,0.,24.0
1979-07-23 12:34:57.850 ,0,0,1.,24.0,1.,24.0,3.,24.0,0.,24.0
1979-07-23 12:35:21.850 ,0,1,1.,24.0,0.,24.0,3.,24.0,0.,24.0
1979-07-23 12:35:45.850 ,0,0,0.,24.0,0.,24.0,4.,24.0,0.,24.0
1979-07-23 12:36:09.850 ,1,1,1.,24.0,1.,24.0,2.,24.0,0.,24.0
1979-07-23 12:36:33.850 ,1,0,0.,24.0,0.,24.0,4.,24.0,0.,24.0
1979-07-23 12:36:57.850 ,2,1,1.,24.0,0.,24.0,6.,24.0,0.,24.0
1979-07-23 12:37:21.850 ,2,0,1.,24.0,0.,24.0,3.,24.0,0.,24.0
1979-07-23 12:37:45.850 ,3,1,1.,24.0,1.,24.0,3.,24.0,0.,24.0
1979-07-23 12:38:09.850 ,3,0,2.,24.0,0.,24.0,4.,24.0,0.,24.0
1979-07-23 12:38:33.850 ,4,1,2.,24.0,0.,24.0,3.,24.0,0.,24.0
1979-07-23 12:38:57.850 ,4,0,2.,24.0,0.,24.0,1.,24.0,0.,24.0
1979-07-23 12:39:21.850 ,5,1,1.,24.0,0.,24.0,2.,24.0,0.,24.0
1979-07-23 12:39:45.850 ,5,0,0.,24.0,0.,24.0,8.,24.0,0.,24.0
1979-07-23 12:40:09.850 ,6,1,4.,24.0,0.,24.0,4.,24.0,0.,24.0
1979-07-23 12:40:33.850 ,6,0,0.,24.0,0.,24.0,6.,24.0,0.,24.0
1979-07-23 12:40:57.850 ,7,1,9.,24.0,1.,24.0,5.,24.0,0.,24.0
1979-07-23 12:41:21.850 ,7,0,25.,24.0,0.,24.0,5.,24.0,0.,24.0
1979-07-23 12:41:45.850 ,7,1,36.,24.0,0.,24.0,4.,24.0,0.,24.0
1979-07-23 12:42:09.850 ,7,0,25.,24.0,0.,24.0,5.,24.0,0.,24.0
1979-07-23 12:42:33.850 ,6,1,23.,24.0,0.,24.0,3.,24.0,0.,24.0
1979-07-23 12:42:57.850 ,6,0,0.,24.0,1.,24.0,5.,24.0,0.,24.0
1979-07-23 12:43:21.850 ,5,1,3.,24.0,0.,24.0,1.,24.0,0.,24.0
1979-07-23 12:43:45.850 ,5,0,1.,24.0,1.,24.0,5.,24.0,0.,24.0
1979-07-23 12:44:09.850 ,4,1,1.,24.0,0.,24.0,4.,24.0,0.,24.0
1979-07-23 12:44:33.850 ,4,0,4.,24.0,1.,24.0,3.,24.0,0.,24.0
1979-07-23 12:44:57.850 ,3,1,0.,24.0,1.,24.0,3.,24.0,0.,24.0
1979-07-23 12:45:21.850 ,3,0,0.,24.0,0.,24.0,3.,24.0,0.,24.0
1979-07-23 12:45:45.850 ,2,1,1.,24.0,1.,24.0,6.,24.0,0.,24.0
1979-07-23 12:46:09.850 ,2,0,0.,24.0,1.,24.0,2.,24.0,0.,24.0
1979-07-23 12:46:33.850 ,1,1,0.,24.0,0.,24.0,2.,24.0,0.,24.0
1979-07-23 12:46:57.850 ,1,0,2.,24.0,0.,24.0,4.,24.0,0.,24.0
1979-07-23 12:47:21.850 ,0,1,0.,24.0,0.,24.0,2.,24.0,0.,24.0
1979-07-23 12:47:45.850 ,0,0,3.,24.0,0.,24.0,2.,24.0,0.,24.0
1979-07-23 12:48:09.850 ,0,1,0.,24.0,0.,24.0,3.,24.0,0.,24.0
1979-07-23 12:48:33.850 ,0,0,3.,24.0,0.,24.0,4.,24.0,0.,24.0
1979-07-23 12:48:57.850 ,1,1,2.,24.0,0.,24.0,2.,24.0,0.,24.0
1979-07-23 12:49:21.850 ,1,0,1.,24.0,1.,24.0,4.,24.0,0.,24.0
1979-07-23 12:49:45.850 ,2,1,1.,24.0,0.,24.0,4.,24.0,0.,24.0
1979-07-23 12:50:09.850 ,2,0,0.,24.0,0.,24.0,1.,24.0,0.,24.0
1979-07-23 12:50:33.850 ,3,1,1.,24.0,0.,24.0,3.,24.0,0.,24.0
1979-07-23 12:50:57.850 ,3,0,0.,24.0,0.,24.0,3.,24.0,0.,24.0
1979-07-23 12:51:21.850 ,4,1,2.,24.0,0.,24.0,2.,24.0,0.,24.0
1979-07-23 12:51:45.850 ,4,0,0.,24.0,1.,24.0,2.,24.0,0.,24.0
1979-07-23 12:52:09.850 ,5,1,0.,24.0,1.,24.0,3.,24.0,0.,24.0
1979-07-23 12:52:33.850 ,5,0,0.,24.0,0.,24.0,8.,24.0,0.,24.0
1979-07-23 12:52:57.850 ,6,1,2.,24.0,1.,24.0,9.,24.0,0.,24.0
1979-07-23 12:53:21.850 ,6,0,2.,24.0,1.,24.0,4.,24.0,0.,24.0
1979-07-23 12:53:45.850 ,7,1,8.,24.0,0.,24.0,2.,24.0,0.,24.0
1979-07-23 12:54:09.850 ,7,0,36.,24.0,0.,24.0,11.,24.0,0.,24.0
1979-07-23 12:54:33.850 ,7,1,26.,24.0,0.,24.0,6.,24.0,0.,24.0
1979-07-23 12:54:57.850 ,7,0,30.,24.0,0.,24.0,4.,24.0,0.,24.0
1979-07-23 12:55:21.850 ,6,1,22.,24.0,0.,24.0,2.,24.0,0.,24.0
1979-07-23 12:55:45.850 ,6,0,3.,24.0,0.,24.0,2.,24.0,0.,24.0
1979-07-23 12:56:09.850 ,5,1,3.,24.0,0.,24.0,1.,24.0,0.,24.0
1979-07-23 12:56:33.850 ,5,0,2.,24.0,0.,24.0,3.,24.0,0.,24.0
1979-07-23 12:56:57.850 ,4,1,3.,24.0,0.,24.0,4.,24.0,0.,24.0
1979-07-23 12:57:21.850 ,4,0,1.,24.0,0.,24.0,4.,24.0,0.,24.0
1979-07-23 12:57:45.850 ,3,1,1.,24.0,0.,24.0,3.,24.0,0.,24.0
1979-07-23 12:58:09.850 ,3,0,0.,24.0,0.,24.0,5.,24.0,0.,24.0
1979-07-23 12:58:33.850 ,2,1,1.,24.0,0.,24.0,2.,24.0,0.,24.0
1979-07-23 12:58:57.850 ,2,0,0.,24.0,0.,24.0,0.,24.0,0.,24.0
1979-07-23 12:59:21.850 ,1,1,2.,24.0,0.,24.0,4.,24.0,0.,24.0
1979-07-23 12:59:45.850 ,1,0,0.,24.0,0.,24.0,3.,24.0,0.,24.0
1979-07-23 13:00:09.850 ,0,1,2.,24.0,0.,24.0,4.,24.0,0.,24.0
1979-07-23 13:00:33.850 ,0,0,0.,24.0,0.,24.0,8.,24.0,0.,24.0
1979-07-23 13:00:57.850 ,0,1,3.,24.0,0.,24.0,5.,24.0,0.,24.0
1979-07-23 13:01:21.850 ,0,0,2.,24.0,3.,24.0,2.,24.0,0.,24.0
1979-07-23 13:01:45.850 ,1,1,0.,24.0,0.,24.0,4.,24.0,0.,24.0
1979-07-23 13:02:09.850 ,1,0,2.,24.0,1.,24.0,3.,24.0,0.,24.0
1979-07-23 13:02:33.850 ,2,1,3.,24.0,0.,24.0,1.,24.0,0.,24.0
1979-07-23 13:02:57.850 ,2,0,1.,24.0,0.,24.0,4.,24.0,0.,24.0
1979-07-23 13:03:21.850 ,3,1,1.,24.0,0.,24.0,2.,24.0,0.,24.0
1979-07-23 13:03:45.850 ,3,0,4.,24.0,0.,24.0,4.,24.0,0.,24.0
1979-07-23 13:04:09.850 ,4,1,1.,24.0,0.,24.0,4.,24.0,0.,24.0
1979-07-23 13:04:33.850 ,4,0,0.,24.0,0.,24.0,1.,24.0,0.,24.0
1979-07-23 13:04:57.850 ,5,1,1.,24.0,0.,24.0,6.,24.0,0.,24.0
1979-07-23 13:05:21.850 ,5,0,2.,24.0,2.,24.0,6.,24.0,0.,24.0
1979-07-23 13:05:45.850 ,6,1,1.,24.0,0.,24.0,7.,24.0,0.,24.0
1979-07-23 13:06:09.850 ,6,0,6.,24.0,2.,24.0,5.,24.0,0.,24.0
1979-07-23 13:06:33.850 ,7,0,10.,24.0,0.,24.0,3.,24.0,0.,24.0
1979-07-23 13:06:57.850 ,7,0,22.,24.0,0.,24.0,7.,24.0,0.,24.0
1979-07-23 13:07:21.850 ,5,1,10.,24.0,0.,24.0,1.,24.0,0.,24.0
1979-07-23 13:07:45.850 ,1,1,0.,24.0,1.,24.0,1.,24.0,0.,24.0
1979-07-23 13:08:09.850 ,2,1,0.,24.0,0.,24.0,2.,24.0,0.,24.0
1979-07-23 13:08:33.850 ,6,1,2.,24.0,0.,24.0,4.,24.0,0.,24.0
1979-07-23 13:08:57.850 ,5,1,16.,24.0,0.,24.0,4.,24.0,0.,24.0
1979-07-23 13:09:21.850 ,1,1,1.,24.0,0.,24.0,3.,24.0,0.,24.0
1979-07-23 13:09:45.850 ,2,1,2.,24.0,0.,24.0,1.,24.0,0.,24.0
1979-07-23 13:10:09.850 ,6,1,1.,24.0,1.,24.0,1.,24.0,0.,24.0
1979-07-23 13:10:33.850 ,5,1,7.,24.0,0.,24.0,3.,24.0,0.,24.0
1979-07-23 13:10:57.850 ,1,1,1.,24.0,0.,24.0,2.,24.0,0.,24.0
1979-07-23 13:11:21.850 ,2,1,0.,24.0,0.,24.0,7.,24.0,0.,24.0
1979-07-23 13:11:45.850 ,6,1,0.,24.0,1.,24.0,3.,24.0,0.,24.0
1979-07-23 13:12:09.850 ,5,1,21.,24.0,0.,24.0,5.,24.0,0.,24.0
1979-07-23 13:12:33.850 ,1,1,2.,24.0,0.,24.0,2.,24.0,0.,24.0
1979-07-23 13:12:57.850 ,2,1,1.,24.0,0.,24.0,3.,24.0,0.,24.0
1979-07-23 13:13:21.850 ,6,1,1.,24.0,0.,24.0,4.,24.0,0.,24.0
1979-07-23 13:13:45.850 ,5,1,15.,24.0,1.,24.0,5.,24.0,0.,24.0
1979-07-23 13:14:09.850 ,1,1,1.,24.0,0.,24.0,7.,24.0,0.,24.0
1979-07-23 13:14:33.850 ,2,1,2.,24.0,0.,24.0,4.,24.0,0.,24.0
1979-07-23 13:14:57.850 ,6,1,2.,24.0,1.,24.0,2.,24.0,0.,24.0
1979-07-23 13:15:21.850 ,5,1,19.,24.0,0.,24.0,4.,24.0,0.,24.0
1979-07-23 13:15:45.850 ,1,1,0.,24.0,0.,24.0,2.,24.0,0.,24.0
1979-07-23 13:16:09.850 ,2,1,3.,24.0,0.,24.0,1.,24.0,0.,24.0
1979-07-23 13:16:33.850 ,6,1,2.,24.0,0.,24.0,4.,24.0,0.,24.0
1979-07-23 13:16:57.850 ,5,1,12.,24.0,0.,24.0,2.,24.0,0.,24.0
1979-07-23 13:17:21.850 ,1,1,1.,24.0,0.,24.0,2.,24.0,0.,24.0
1979-07-23 13:17:45.850 ,0,0,2.,24.0,0.,24.0,6.,24.0,0.,24.0
1979-07-23 13:18:09.850 ,0,0,2.,24.0,0.,24.0,4.,24.0,0.,24.0
1979-07-23 13:18:33.850 ,5,1,25.,24.0,0.,24.0,7.,24.0,0.,24.0
1979-07-23 13:18:57.850 ,5,0,2.,24.0,0.,24.0,4.,24.0,0.,24.0
1979-07-23 13:19:21.850 ,4,1,1.,24.0,0.,24.0,8.,24.0,0.,24.0
1979-07-23 13:19:45.850 ,4,0,0.,24.0,0.,24.0,5.,24.0,0.,24.0
1979-07-23 13:20:09.850 ,3,1,3.,24.0,0.,24.0,2.,24.0,0.,24.0
1979-07-23 13:20:33.850 ,3,0,0.,24.0,0.,24.0,1.,24.0,0.,24.0
1979-07-23 13:20:57.850 ,2,1,3.,24.0,0.,24.0,1.,24.0,0.,24.0
1979-07-23 13:21:21.850 ,2,0,2.,24.0,0.,24.0,3.,24.0,0.,24.0
1979-07-23 13:21:45.850 ,1,1,0.,24.0,0.,24.0,1.,24.0,0.,24.0
1979-07-23 13:22:09.850 ,1,0,1.,24.0,0.,24.0,2.,24.0,0.,24.0
1979-07-23 13:23:21.850 ,0,0,2.,24.0,1.,24.0,4.,24.0,0.,24.0
1979-07-23 13:23:45.850 ,0,0,2.,24.0,0.,24.0,5.,24.0,0.,24.0
1979-07-23 13:24:09.850 ,1,1,0.,24.0,0.,24.0,2.,24.0,0.,24.0
1979-07-23 13:24:33.850 ,1,0,1.,24.0,0.,24.0,2.,24.0,0.,24.0
1979-07-23 13:24:57.850 ,2,1,1.,24.0,1.,24.0,5.,24.0,0.,24.0
1979-07-23 13:25:21.850 ,2,0,2.,24.0,0.,24.0,4.,24.0,0.,24.0
1979-07-23 13:25:45.850 ,3,1,1.,24.0,0.,24.0,2.,24.0,0.,24.0
1979-07-23 13:26:09.850 ,3,0,1.,24.0,0.,24.0,5.,24.0,0.,24.0
1979-07-23 13:26:33.850 ,4,1,0.,24.0,0.,24.0,3.,24.0,0.,24.0
1979-07-23 13:26:57.850 ,4,0,4.,24.0,0.,24.0,3.,24.0,0.,24.0
1979-07-23 13:27:21.850 ,5,1,2.,24.0,1.,24.0,7.,24.0,0.,24.0
1979-07-23 13:27:45.850 ,5,0,1.,24.0,0.,24.0,4.,24.0,0.,24.0
1979-07-23 13:28:57.850 ,0,0,8.,24.0,0.,24.0,4.,24.0,0.,24.0
1979-07-23 13:29:21.850 ,0,0,30.,24.0,0.,24.0,3.,24.0,0.,24.0
1979-07-23 13:29:45.850 ,7,1,35.,24.0,0.,24.0,7.,24.0,0.,24.0
1979-07-23 13:30:09.850 ,7,0,29.,24.0,0.,24.0,3.,24.0,0.,24.0
1979-07-23 13:30:33.850 ,6,1,26.,24.0,0.,24.0,1.,24.0,0.,24.0
1979-07-23 13:30:57.850 ,6,0,2.,24.0,0.,24.0,9.,24.0,0.,24.0
1979-07-23 13:31:21.850 ,5,1,2.,24.0,0.,24.0,6.,24.0,0.,24.0
1979-07-23 13:31:45.850 ,5,0,0.,24.0,0.,24.0,5.,24.0,0.,24.0
1979-07-23 13:32:09.850 ,4,1,2.,24.0,0.,24.0,8.,24.0,0.,24.0
1979-07-23 13:32:33.850 ,4,0,1.,24.0,0.,24.0,3.,24.0,0.,24.0
1979-07-23 13:32:57.850 ,3,1,1.,24.0,1.,24.0,8.,24.0,0.,24.0
1979-07-23 13:33:21.850 ,3,0,0.,24.0,0.,24.0,4.,24.0,0.,24.0
1979-07-23 13:33:45.850 ,2,1,0.,24.0,0.,24.0,0.,24.0,0.,24.0
1979-07-23 13:34:09.850 ,2,0,2.,24.0,0.,24.0,4.,24.0,0.,24.0
1979-07-23 13:34:33.850 ,1,1,1.,24.0,0.,24.0,3.,24.0,0.,24.0
1979-07-23 13:34:57.850 ,1,0,0.,24.0,0.,24.0,5.,24.0,0.,24.0
1979-07-23 13:35:21.850 ,0,1,1.,24.0,0.,24.0,4.,24.0,0.,24.0
1979-07-23 13:35:45.850 ,0,0,0.,24.0,1.,24.0,9.,24.0,0.,24.0
1979-07-23 13:36:57.850 ,0,0,1.,24.0,0.,24.0,4.,24.0,0.,24.0
1979-07-23 13:37:21.850 ,0,0,0.,24.0,0.,24.0,3.,24.0,0.,24.0
1979-07-23 13:37:45.850 ,2,1,1.,24.0,1.,24.0,8.,24.0,0.,24.0
1979-07-23 13:38:09.850 ,2,0,2.,24.0,0.,24.0,5.,24.0,0.,24.0
1979-07-23 13:38:33.850 ,3,1,1.,24.0,0.,24.0,5.,24.0,0.,24.0
1979-07-23 13:38:57.850 ,3,0,3.,24.0,1.,24.0,1.,24.0,0.,24.0
1979-07-23 13:39:21.850 ,4,1,1.,24.0,0.,24.0,6.,24.0,0.,24.0
1979-07-23 13:39:45.850 ,4,0,0.,24.0,0.,24.0,2.,24.0,0.,24.0
1979-07-23 13:40:09.850 ,5,1,1.,24.0,0.,24.0,7.,24.0,0.,24.0
1979-07-23 13:40:33.850 ,5,0,0.,24.0,0.,24.0,3.,24.0,0.,24.0
1979-07-23 13:40:57.850 ,6,1,2.,24.0,0.,24.0,6.,24.0,0.,24.0
1979-07-23 13:41:21.850 ,6,0,2.,24.0,1.,24.0,7.,24.0,0.,24.0
1979-07-23 13:41:45.850 ,7,1,6.,24.0,1.,24.0,5.,24.0,0.,24.0
1979-07-23 13:42:09.850 ,7,0,25.,24.0,0.,24.0,4.,24.0,0.,24.0
1979-07-23 13:42:33.850 ,7,1,35.,24.0,0.,24.0,3.,24.0,0.,24.0
1979-07-23 13:42:57.850 ,7,0,21.,24.0,0.,24.0,5.,24.0,0.,24.0
1979-07-23 13:43:21.850 ,6,1,27.,24.0,0.,24.0,7.,24.0,0.,24.0
1979-07-23 13:43:45.850 ,6,0,1.,24.0,0.,24.0,5.,24.0,0.,24.0
1979-07-23 13:44:09.850 ,5,1,2.,24.0,0.,24.0,8.,24.0,0.,24.0
1979-07-23 13:44:33.850 ,5,0,4.,24.0,1.,24.0,3.,24.0,0.,24.0
1979-07-23 13:44:57.850 ,4,1,2.,24.0,0.,24.0,4.,24.0,0.,24.0
1979-07-23 13:45:21.850 ,4,0,2.,24.0,0.,24.0,4.,24.0,0.,24.0
1979-07-23 13:45:45.850 ,3,1,2.,24.0,0.,24.0,2.,24.0,0.,24.0
1979-07-23 13:46:09.850 ,3,0,4.,24.0,0.,24.0,3.,24.0,0.,24.0
1979-07-23 13:46:33.850 ,2,1,3.,24.0,0.,24.0,4.,24.0,0.,24.0
1979-07-23 13:46:57.850 ,2,0,8.,24.0,1.,24.0,6.,24.0,0.,24.0
1979-07-23 13:47:21.850 ,1,1,2.,24.0,0.,24.0,5.,24.0,0.,24.0
1979-07-23 13:47:45.850 ,1,0,1.,24.0,0.,24.0,1.,24.0,0.,24.0
1979-07-23 13:48:09.850 ,0,1,1.,24.0,0.,24.0,8.,24.0,0.,24.0
1979-07-23 13:48:33.850 ,0,0,1.,24.0,0.,24.0,7.,24.0,0.,24.0
1979-07-23 13:48:57.850 ,0,1,0.,24.0,0.,24.0,1.,24.0,0.,24.0
1979-07-23 13:49:21.850 ,0,0,0.,24.0,0.,24.0,6.,24.0,0.,24.0
1979-07-23 13:49:45.850 ,1,1,0.,24.0,1.,24.0,3.,24.0,0.,24.0
1979-07-23 13:50:09.850 ,1,0,4.,24.0,0.,24.0,5.,24.0,0.,24.0
1979-07-23 13:50:33.850 ,2,1,2.,24.0,0.,24.0,6.,24.0,0.,24.0
1979-07-23 13:50:57.850 ,2,0,4.,24.0,0.,24.0,4.,24.0,0.,24.0
1979-07-23 13:51:21.850 ,3,1,5.,24.0,1.,24.0,4.,24.0,0.,24.0
1979-07-23 13:51:45.850 ,3,0,4.,24.0,3.,24.0,3.,24.0,0.,24.0
1979-07-23 13:52:09.850 ,4,1,2.,24.0,1.,24.0,7.,24.0,0.,24.0
1979-07-23 13:52:33.850 ,4,0,0.,24.0,0.,24.0,5.,24.0,0.,24.0
1979-07-23 13:52:57.850 ,5,1,7.,24.0,0.,24.0,5.,24.0,0.,24.0
1979-07-23 13:53:21.850 ,5,0,2.,24.0,0.,24.0,3.,24.0,0.,24.0
1979-07-23 13:53:45.850 ,6,1,2.,24.0,1.,24.0,6.,24.0,0.,24.0
1979-07-23 13:54:09.850 ,6,0,0.,24.0,0.,24.0,2.,24.0,0.,24.0
1979-07-23 13:55:21.850 ,0,0,23.,24.0,0.,24.0,6.,24.0,0.,24.0
1979-07-23 13:55:45.850 ,1,1,4.,24.0,0.,24.0,8.,24.0,0.,24.0
1979-07-23 13:56:09.850 ,2,1,4.,24.0,1.,24.0,8.,24.0,0.,24.0
1979-07-23 13:56:33.850 ,6,1,3.,24.0,0.,24.0,5.,24.0,0.,24.0
1979-07-23 13:56:57.850 ,5,1,15.,24.0,0.,24.0,8.,24.0,0.,24.0
1979-07-23 13:57:21.850 ,1,1,3.,24.0,0.,24.0,6.,24.0,0.,24.0
1979-07-23 13:57:45.850 ,2,1,2.,24.0,0.,24.0,3.,24.0,0.,24.0
1979-07-23 13:58:09.850 ,6,1,5.,24.0,0.,24.0,8.,24.0,0.,24.0
1979-07-23 13:58:33.850 ,5,1,17.,24.0,0.,24.0,6.,24.0,0.,24.0
1979-07-23 13:58:57.850 ,1,1,2.,24.0,1.,24.0,5.,24.0,0.,24.0
1979-07-23 13:59:21.850 ,2,1,1.,24.0,0.,24.0,2.,24.0,0.,24.0
1979-07-23 13:59:45.850 ,6,1,6.,24.0,0.,24.0,3.,24.0,0.,24.0
1979-07-23 14:00:09.850 ,5,1,11.,24.0,0.,24.0,6.,24.0,0.,24.0
1979-07-23 14:00:33.850 ,1,1,4.,24.0,1.,24.0,11.,24.0,0.,24.0
1979-07-23 14:00:57.850 ,2,1,3.,24.0,0.,24.0,6.,24.0,0.,24.0
1979-07-23 14:01:21.850 ,6,1,2.,24.0,0.,24.0,6.,24.0,0.,24.0
1979-07-23 14:01:45.850 ,5,1,13.,24.0,0.,24.0,5.,24.0,0.,24.0
1979-07-23 14:02:09.850 ,1,1,2.,24.0,1.,24.0,5.,24.0,0.,24.0
1979-07-23 14:02:33.850 ,2,1,2.,24.0,2.,24.0,7.,24.0,0.,24.0
1979-07-23 14:02:57.850 ,6,1,1.,24.0,0.,24.0,3.,24.0,0.,24.0
1979-07-23 14:03:21.850 ,5,1,19.,24.0,0.,24.0,6.,24.0,0.,24.0
1979-07-23 14:03:45.850 ,1,1,1.,24.0,0.,24.0,5.,24.0,0.,24.0
1979-07-23 14:04:09.850 ,2,1,1.,24.0,0.,24.0,6.,24.0,0.,24.0
1979-07-23 14:04:33.850 ,6,1,0.,24.0,0.,24.0,2.,24.0,0.,24.0
1979-07-23 14:04:57.850 ,5,1,16.,24.0,1.,24.0,5.,24.0,0.,24.0
1979-07-23 14:05:21.850 ,1,1,3.,24.0,0.,24.0,7.,24.0,0.,24.0
1979-07-23 14:05:45.850 ,0,0,3.,24.0,0.,24.0,3.,24.0,0.,24.0
1979-07-23 14:06:09.850 ,0,0,2.,24.0,1.,24.0,4.,24.0,0.,24.0
1979-07-23 14:06:33.850 ,5,1,12.,24.0,0.,24.0,4.,24.0,0.,24.0
1979-07-23 14:06:57.850 ,5,0,2.,24.0,0.,24.0,9.,24.0,0.,24.0
1979-07-23 14:07:21.850 ,4,1,4.,24.0,1.,24.0,8.,24.0,0.,24.0
1979-07-23 14:07:45.850 ,4,0,1.,24.0,0.,24.0,9.,24.0,0.,24.0
1979-07-23 14:08:09.850 ,3,1,3.,24.0,0.,24.0,6.,24.0,0.,24.0
1979-07-23 14:08:33.850 ,3,0,0.,24.0,0.,24.0,7.,24.0,0.,24.0
1979-07-23 14:08:57.850 ,0,0,2.,24.0,0.,24.0,5.,24.0,0.,24.0
1979-07-23 14:09:21.850 ,0,0,4.,24.0,1.,24.0,6.,24.0,0.,24.0
1979-07-23 14:09:45.850 ,1,1,2.,24.0,1.,24.0,7.,24.0,0.,24.0
1979-07-23 14:10:09.850 ,1,0,4.,24.0,0.,24.0,4.,24.0,0.,24.0
1979-07-23 14:10:33.850 ,0,1,1.,24.0,0.,24.0,5.,24.0,0.,24.0
1979-07-23 14:10:57.850 ,0,0,0.,24.0,0.,24.0,4.,24.0,0.,24.0
1979-07-23 14:11:21.850 ,0,1,3.,24.0,0.,24.0,4.,24.0,0.,24.0
1979-07-23 14:11:45.850 ,0,0,0.,24.0,0.,24.0,4.,24.0,0.,24.0
1979-07-23 14:12:09.850 ,1,1,2.,24.0,0.,24.0,5.,24.0,0.,24.0
1979-07-23 14:12:33.850 ,1,0,1.,24.0,0.,24.0,4.,24.0,0.,24.0
1979-07-23 14:12:57.850 ,2,1,2.,24.0,1.,24.0,5.,24.0,0.,24.0
1979-07-23 14:13:21.850 ,2,0,3.,24.0,2.,24.0,4.,24.0,0.,24.0
1979-07-23 14:13:45.850 ,3,1,3.,24.0,0.,24.0,5.,24.0,0.,24.0
1979-07-23 14:14:09.850 ,3,0,1.,24.0,2.,24.0,5.,24.0,0.,24.0
1979-07-23 14:14:33.850 ,4,1,2.,24.0,0.,24.0,5.,24.0,0.,24.0
1979-07-23 14:14:57.850 ,4,0,3.,24.0,0.,24.0,5.,24.0,0.,24.0
1979-07-23 14:15:21.850 ,5,1,3.,24.0,0.,24.0,1.,24.0,0.,24.0
1979-07-23 14:15:45.850 ,5,0,2.,24.0,0.,24.0,5.,24.0,0.,24.0
1979-07-23 14:16:09.850 ,6,1,6.,24.0,2.,24.0,5.,24.0,0.,24.0
1979-07-23 14:16:33.850 ,6,0,2.,24.0,1.,24.0,4.,24.0,0.,24.0
1979-07-23 14:16:57.850 ,7,1,6.,24.0,2.,24.0,6.,24.0,0.,24.0
1979-07-23 14:17:21.850 ,7,0,28.,24.0,0.,24.0,2.,24.0,0.,24.0
1979-07-23 14:17:45.850 ,7,1,24.,24.0,0.,24.0,1.,24.0,0.,24.0
1979-07-23 14:18:09.850 ,7,0,28.,24.0,0.,24.0,5.,24.0,0.,24.0
1979-07-23 14:18:33.850 ,6,1,29.,24.0,0.,24.0,7.,24.0,0.,24.0
1979-07-23 14:18:57.850 ,6,0,3.,24.0,0.,24.0,5.,24.0,0.,24.0
1979-07-23 14:19:21.850 ,5,1,2.,24.0,0.,24.0,7.,24.0,0.,24.0
1979-07-23 14:19:45.850 ,5,0,1.,24.0,0.,24.0,5.,24.0,0.,24.0
1979-07-23 14:20:09.850 ,4,1,4.,24.0,0.,24.0,2.,24.0,0.,24.0
1979-07-23 14:20:33.850 ,4,0,2.,24.0,0.,24.0,1.,24.0,0.,24.0
1979-07-23 14:20:57.850 ,3,1,1.,24.0,1.,24.0,3.,24.0,0.,24.0
1979-07-23 14:21:21.850 ,3,0,5.,24.0,0.,24.0,3.,24.0,0.,24.0
1979-07-23 14:21:45.850 ,2,1,2.,24.0,0.,24.0,5.,24.0,0.,24.0
1979-07-23 14:22:09.850 ,2,0,3.,24.0,1.,24.0,4.,24.0,0.,24.0
1979-07-23 14:22:33.850 ,1,1,3.,24.0,0.,24.0,4.,24.0,0.,24.0
1979-07-23 14:22:57.850 ,1,0,2.,24.0,0.,24.0,4.,24.0,0.,24.0
1979-07-23 14:23:21.850 ,0,1,2.,24.0,0.,24.0,4.,24.0,0.,24.0
1979-07-23 14:23:45.850 ,0,0,0.,24.0,1.,24.0,2.,24.0,0.,24.0
1979-07-23 14:24:09.850 ,0,1,1.,24.0,1.,24.0,13.,24.0,0.,24.0
1979-07-23 14:24:33.850 ,0,0,3.,24.0,0.,24.0,6.,24.0,0.,24.0
1979-07-23 14:24:57.850 ,1,1,2.,24.0,0.,24.0,4.,24.0,0.,24.0
1979-07-23 14:25:21.850 ,1,0,2.,24.0,0.,24.0,7.,24.0,0.,24.0
1979-07-23 14:25:45.850 ,2,1,2.,24.0,1.,24.0,5.,24.0,0.,24.0
1979-07-23 14:26:09.850 ,2,0,3.,24.0,2.,24.0,8.,24.0,0.,24.0
1979-07-23 14:26:33.850 ,3,1,5.,24.0,2.,24.0,7.,24.0,0.,24.0
1979-07-23 14:26:57.850 ,3,0,4.,24.0,0.,24.0,4.,24.0,0.,24.0
1979-07-23 14:27:21.850 ,4,1,1.,24.0,0.,24.0,5.,24.0,0.,24.0
1979-07-23 14:27:45.850 ,4,0,2.,24.0,0.,24.0,10.,24.0,0.,24.0
1979-07-23 14:28:09.850 ,5,1,2.,24.0,0.,24.0,2.,24.0,0.,24.0
1979-07-23 14:28:33.850 ,5,0,2.,24.0,2.,24.0,6.,24.0,0.,24.0
1979-07-23 14:28:57.850 ,6,1,4.,24.0,0.,24.0,6.,24.0,0.,24.0
1979-07-23 14:29:21.850 ,6,0,2.,24.0,0.,24.0,6.,24.0,0.,24.0
1979-07-23 14:29:45.850 ,7,1,8.,24.0,0.,24.0,6.,24.0,0.,24.0
1979-07-23 14:30:09.850 ,7,0,37.,24.0,0.,24.0,4.,24.0,0.,24.0
1979-07-23 14:30:33.850 ,7,1,37.,24.0,0.,24.0,2.,24.0,0.,24.0
1979-07-23 14:30:57.850 ,7,0,20.,24.0,0.,24.0,3.,24.0,0.,24.0
1979-07-23 14:31:21.850 ,6,1,27.,24.0,0.,24.0,7.,24.0,0.,24.0
1979-07-23 14:31:45.850 ,6,0,6.,24.0,0.,24.0,5.,24.0,0.,24.0
1979-07-23 14:32:09.850 ,5,1,1.,24.0,0.,24.0,5.,24.0,0.,24.0
1979-07-23 14:32:33.850 ,0,0,1.,24.0,0.,24.0,5.,24.0,0.,24.0
1979-07-23 14:32:33.850 ,0,0,1.,24.0,0.,24.0,5.,24.0,0.,24.0
1979-07-23 14:32:33.850 ,0,0,1.,24.0,0.,24.0,5.,24.0,0.,24.0
1979-07-23 14:32:57.850 ,4,1,2.,24.0,1.,24.0,5.,24.0,0.,24.0
1979-07-23 14:33:21.850 ,4,0,5.,24.0,0.,24.0,5.,24.0,0.,24.0
1979-07-23 14:33:45.850 ,3,1,2.,24.0,0.,24.0,4.,24.0,0.,24.0
1979-07-23 14:34:09.850 ,3,0,0.,24.0,0.,24.0,4.,24.0,0.,24.0
1979-07-23 14:34:33.850 ,2,1,5.,24.0,0.,24.0,2.,24.0,0.,24.0
1979-07-23 14:34:57.850 ,2,0,4.,24.0,2.,24.0,6.,24.0,0.,24.0
1979-07-23 14:35:21.850 ,1,1,3.,24.0,0.,24.0,9.,24.0,0.,24.0
1979-07-23 14:35:45.850 ,1,0,4.,24.0,3.,24.0,7.,24.0,0.,24.0
1979-07-23 14:36:09.850 ,0,1,0.,24.0,2.,24.0,2.,24.0,0.,24.0
1979-07-23 14:36:33.850 ,0,0,3.,24.0,0.,24.0,8.,24.0,0.,24.0
1979-07-23 14:36:57.850 ,0,1,7.,24.0,0.,24.0,6.,24.0,0.,24.0
1979-07-23 14:37:21.850 ,0,0,2.,24.0,0.,24.0,4.,24.0,0.,24.0